�N����,����,�~����,�C��,���x,�C��,����,���ϕ���,�ő�u�ԕ���,�ő厞����,���˗�,�I�_���x,�n�����x,�ő啗���N��,DTYPE
"18/07/15","00:10",0.0,25.3,77.0,1004.8,331.9,1.2,2.1,338.8,0.00,21.0,26.4,"00:02:08",1
"18/07/15","00:20",0.0,25.2,77.4,1005.0,324.7,1.3,2.2,341.4,0.00,21.0,26.2,"00:10:08",1
"18/07/15","00:30",0.0,25.0,78.1,1004.8,318.9,1.1,1.8,326.2,0.00,21.0,26.3,"00:23:28",1
"18/07/15","00:40",0.0,24.9,78.6,1005.0,331.9,1.2,2.2,330.7,0.00,21.0,26.0,"00:30:32",1
"18/07/15","00:50",0.0,25.0,78.3,1005.0,331.2,1.6,2.7,317.6,0.00,21.0,26.0,"00:45:04",1
"18/07/15","01:00",0.0,25.0,78.2,1005.0,326.8,1.5,2.4,342.2,0.00,21.0,26.2,"00:50:40",1
"18/07/15","01:10",0.0,25.0,78.2,1004.8,316.9,1.0,2.1,319.2,0.00,21.0,26.1,"01:07:20",1
"18/07/15","01:20",0.0,24.8,78.8,1004.8,315.5,1.0,1.9,313.8,0.00,20.9,25.8,"01:14:08",1
"18/07/15","01:30",0.0,24.7,79.8,1004.5,301.6,0.8,1.9,313.4,0.00,21.0,26.0,"01:23:36",1
"18/07/15","01:40",0.0,24.5,80.5,1005.0,309.2,0.8,1.9,320.5,0.00,21.0,25.9,"01:31:12",1
"18/07/15","01:50",0.0,24.7,80.3,1004.8,353.5,1.0,1.9,346.1,0.00,21.1,25.7,"01:46:32",1
"18/07/15","02:00",0.0,24.4,80.9,1005.0,325.8,1.1,1.7,335.6,0.00,20.9,25.6,"01:54:56",1
"18/07/15","02:10",0.0,23.9,83.1,1004.8,297.2,0.8,1.6,327.5,0.00,20.9,25.8,"02:07:12",1
"18/07/15","02:20",0.0,23.8,83.7,1005.0,287.9,0.8,1.3,318.6,0.00,20.9,25.7,"02:19:52",1
"18/07/15","02:30",0.0,23.8,84.2,1004.8,302.7,1.0,2.1,321.5,0.00,21.0,25.7,"02:26:40",1
"18/07/15","02:40",0.0,24.1,83.3,1005.0,316.0,1.3,2.0,321.1,0.00,21.1,25.6,"02:33:44",1
"18/07/15","02:50",0.0,24.1,83.5,1005.0,289.8,1.0,1.7,309.5,0.00,21.2,25.6,"02:43:36",1
"18/07/15","03:00",0.0,24.1,83.0,1004.8,302.4,1.2,2.1,324.7,0.00,21.1,25.6,"02:52:16",1
"18/07/15","03:10",0.0,24.1,82.9,1005.0,291.8,1.0,1.8,318.9,0.00,21.1,25.6,"03:05:04",1
"18/07/15","03:20",0.0,24.2,82.7,1005.0,315.7,1.6,2.6,311.6,0.00,21.1,25.5,"03:16:48",1
"18/07/15","03:30",0.0,24.4,82.2,1004.8,327.8,1.5,2.7,318.5,0.00,21.2,25.4,"03:24:08",1
"18/07/15","03:40",0.0,24.3,82.1,1005.2,319.7,1.5,2.7,338.3,0.00,21.1,25.4,"03:39:52",1
"18/07/15","03:50",0.0,24.3,82.0,1005.5,337.8,1.2,2.7,309.4,0.00,21.1,25.2,"03:41:04",1
"18/07/15","04:00",0.0,24.2,82.0,1005.2,331.5,1.0,2.2,312.4,0.00,21.0,25.2,"03:52:00",1
"18/07/15","04:10",0.0,24.0,82.6,1005.5,289.3,0.8,1.3,269.5,0.00,20.9,25.2,"04:05:36",1
"18/07/15","04:20",0.0,23.8,83.8,1005.5,279.6,0.8,1.6,305.3,0.00,20.9,25.2,"04:13:36",1
"18/07/15","04:30",0.0,23.5,84.8,1005.5,294.7,1.0,1.7,313.0,0.00,20.8,25.4,"04:29:12",1
"18/07/15","04:40",0.0,23.4,85.8,1005.5,294.8,1.0,1.9,309.9,0.00,20.9,25.3,"04:39:44",1
"18/07/15","04:50",0.0,23.4,86.4,1005.7,301.2,1.0,1.9,317.1,0.00,21.0,25.4,"04:42:24",1
"18/07/15","05:00",0.0,23.4,86.5,1005.5,317.3,1.2,1.9,310.1,0.00,21.1,25.1,"04:59:20",1
"18/07/15","05:10",0.0,23.3,86.7,1005.2,313.6,0.8,1.4,346.5,0.00,21.0,25.0,"05:01:36",1
"18/07/15","05:20",0.0,23.2,88.0,1005.5,306.7,0.8,1.2,324.5,0.00,21.1,25.1,"05:15:44",1
"18/07/15","05:30",0.0,23.2,88.1,1005.7,319.7,1.0,1.6,321.9,0.00,21.2,25.0,"05:29:28",1
"18/07/15","05:40",0.0,23.1,88.9,1006.0,315.2,1.0,1.4,307.4,0.00,21.2,25.1,"05:31:36",1
"18/07/15","05:50",0.0,23.1,89.6,1006.0,309.4,1.1,1.9,331.6,0.00,21.3,25.1,"05:40:02",1
"18/07/15","06:00",0.0,23.5,89.4,1006.2,321.0,1.2,1.9,329.7,0.00,21.7,24.9,"05:51:04",1
"18/07/15","06:10",0.0,23.7,89.5,1006.4,340.5,0.8,1.4,332.1,0.01,21.9,25.0,"06:00:32",1
"18/07/15","06:20",0.0,24.3,88.4,1006.2,345.4,0.5,1.0,324.3,0.02,22.3,24.9,"06:10:40",1
"18/07/15","06:30",0.0,25.3,87.0,1006.4,339.7,0.5,1.2,328.2,0.03,23.0,25.0,"06:21:20",1
"18/07/15","06:40",0.0,25.9,85.1,1006.2,348.2,0.6,1.3,344.7,0.05,23.2,24.9,"06:39:36",1
"18/07/15","06:50",0.0,26.7,82.9,1006.0,357.2,0.6,1.1,344.2,0.06,23.6,25.1,"06:40:40",1
"18/07/15","07:00",0.0,27.1,79.6,1006.2,342.2,0.2,1.1,351.2,0.08,23.3,24.9,"06:55:36",1
"18/07/15","07:10",0.0,27.7,75.9,1006.2,300.4,0.2,1.0,265.0,0.10,23.1,24.8,"07:09:44",1
"18/07/15","07:20",0.0,28.4,75.2,1005.2,0.5,0.5,1.3,352.2,0.13,23.6,25.2,"07:18:00",1
"18/07/15","07:30",0.0,28.7,72.7,1006.2,331.3,0.3,1.1,341.7,0.15,23.4,25.2,"07:25:36",1
"18/07/15","07:40",0.0,29.2,70.4,1006.4,43.4,0.6,1.2,60.1,0.17,23.3,25.3,"07:31:20",1
"18/07/15","07:50",0.0,29.6,69.9,1006.7,85.6,0.5,1.0,55.5,0.19,23.6,25.2,"07:46:56",1
"18/07/15","08:00",0.0,29.6,70.2,1006.9,145.2,0.5,1.0,170.2,0.22,23.6,25.3,"07:57:20",1
"18/07/15","08:10",0.0,30.4,67.9,1007.4,122.5,0.3,1.0,115.6,0.24,23.8,25.3,"08:07:20",1
"18/07/15","08:20",0.0,30.7,68.0,1007.6,114.3,0.6,1.3,119.2,0.27,24.2,25.4,"08:11:12",1
"18/07/15","08:30",0.0,30.8,68.6,1007.6,29.2,0.5,1.6,340.6,0.28,24.4,25.5,"08:27:36",1
"18/07/15","08:40",0.0,30.8,64.3,1007.8,95.5,0.6,1.2,16.4,0.31,23.3,25.7,"08:33:20",1
"18/07/15","08:50",0.0,31.4,64.8,1008.1,50.4,0.7,1.8,16.0,0.33,24.0,25.7,"08:43:36",1
"18/07/15","09:00",0.0,31.6,65.1,1008.1,19.0,0.5,1.6,7.2,0.35,24.3,25.7,"08:56:00",1
"18/07/15","09:10",0.0,32.0,65.9,1008.1,34.5,0.7,1.8,21.2,0.37,24.9,26.1,"09:07:36",1
"18/07/15","09:20",0.0,32.1,63.6,1008.3,102.4,0.7,1.7,132.7,0.39,24.4,26.2,"09:17:28",1
"18/07/15","09:30",0.0,32.2,62.6,1008.3,157.0,1.2,2.6,208.7,0.41,24.2,26.3,"09:21:36",1
"18/07/15","09:40",0.0,32.1,63.0,1008.8,199.4,0.7,1.8,227.8,0.43,24.2,26.3,"09:38:16",1
"18/07/15","09:50",0.0,33.1,59.7,1008.6,55.8,0.6,1.8,20.2,0.45,24.2,26.5,"09:49:52",1
"18/07/15","10:00",0.0,33.3,59.8,1009.0,56.4,0.7,1.6,18.0,0.46,24.5,26.7,"09:51:36",1
"18/07/15","10:10",0.0,33.1,58.5,1009.3,145.2,0.6,1.4,190.7,0.48,23.9,26.7,"10:09:20",1
"18/07/15","10:20",0.0,33.4,59.2,1009.3,172.6,0.7,1.7,191.3,0.49,24.4,26.9,"10:12:32",1
"18/07/15","10:30",0.0,33.5,57.3,1009.5,202.7,1.2,2.7,206.2,0.49,23.9,27.1,"10:29:44",1
"18/07/15","10:40",0.0,33.8,57.2,1009.0,216.9,1.0,2.6,221.2,0.51,24.2,27.2,"10:30:48",1
"18/07/15","10:50",0.0,34.1,56.8,1008.8,190.0,1.2,4.0,211.0,0.52,24.3,27.5,"10:49:28",1
"18/07/15","11:00",0.0,34.1,56.4,1008.8,196.8,1.3,3.1,226.1,0.53,24.2,27.6,"10:53:04",1
"18/07/15","11:10",0.0,34.2,56.3,1009.0,172.1,1.5,3.1,197.1,0.54,24.3,28.0,"11:08:00",1
"18/07/15","11:20",0.0,35.0,55.7,1009.0,38.1,0.6,1.7,57.9,0.55,24.9,27.8,"11:15:20",1
"18/07/15","11:30",0.0,35.0,53.5,1009.0,120.4,0.7,1.9,148.1,0.56,24.2,28.2,"11:23:52",1
"18/07/15","11:40",0.0,35.3,57.7,1009.0,156.3,0.7,2.9,131.0,0.56,25.7,28.6,"11:37:28",1
"18/07/15","11:50",0.0,35.7,53.4,1008.8,202.4,0.8,2.1,341.2,0.56,24.8,28.7,"11:40:56",1
"18/07/15","12:00",0.0,35.3,50.7,1008.8,198.5,1.0,2.8,224.8,0.57,23.6,28.9,"11:58:32",1
"18/07/15","12:10",0.0,35.5,55.5,1008.8,169.4,0.8,2.5,171.7,0.56,25.3,29.1,"12:07:04",1
"18/07/15","12:20",0.0,35.5,52.7,1008.6,190.3,1.7,3.5,231.5,0.56,24.4,29.2,"12:17:52",1
"18/07/15","12:30",0.0,35.6,53.1,1008.1,171.3,1.6,2.8,208.7,0.57,24.6,29.7,"12:23:44",1
"18/07/15","12:40",0.0,35.5,51.6,1008.1,121.8,1.2,2.2,151.4,0.56,24.0,29.7,"12:36:32",1
"18/07/15","12:50",0.0,36.3,53.9,1008.1,153.2,1.0,2.4,159.1,0.56,25.5,29.8,"12:47:12",1
"18/07/15","13:00",0.0,36.2,50.0,1008.3,155.0,1.2,3.1,194.5,0.57,24.2,30.2,"12:59:12",1
"18/07/15","13:10",0.0,36.5,51.8,1008.3,154.3,1.1,2.7,123.8,0.56,25.0,30.1,"13:00:56",1
"18/07/15","13:20",0.0,36.8,48.3,1008.1,199.8,1.1,2.5,229.3,0.51,24.1,29.9,"13:10:24",1
"18/07/15","13:30",0.0,36.3,46.2,1008.1,196.2,1.7,4.3,202.1,0.55,22.9,30.0,"13:28:32",1
"18/07/15","13:40",0.0,36.7,48.5,1008.1,248.7,1.3,3.2,204.5,0.55,24.1,30.1,"13:32:32",1
"18/07/15","13:50",0.0,36.8,47.6,1007.6,274.0,1.2,3.3,222.1,0.53,23.9,30.1,"13:43:28",1
"18/07/15","14:00",0.0,37.2,48.8,1007.8,215.1,0.7,2.2,257.6,0.52,24.7,30.0,"13:56:32",1
"18/07/15","14:10",0.0,37.1,46.1,1007.6,205.4,1.2,2.8,190.1,0.51,23.6,30.2,"14:02:08",1
"18/07/15","14:20",0.0,36.9,46.5,1007.8,199.5,1.6,3.4,206.9,0.50,23.6,30.2,"14:19:52",1
"18/07/15","14:30",0.0,37.2,46.5,1007.1,242.6,0.7,3.2,225.2,0.48,23.9,30.4,"14:20:24",1
"18/07/15","14:40",0.0,37.1,47.1,1006.9,313.9,1.1,2.9,349.0,0.47,24.0,30.3,"14:30:48",1
"18/07/15","14:50",0.0,37.2,43.3,1007.1,210.2,1.1,3.2,230.8,0.46,22.7,30.4,"14:42:32",1
"18/07/15","15:00",0.0,37.2,46.2,1006.7,201.5,0.7,1.9,224.5,0.44,23.8,30.4,"14:58:16",1
"18/07/15","15:10",0.0,37.4,44.0,1006.9,228.1,0.7,2.4,222.8,0.43,23.1,30.3,"15:04:16",1
"18/07/15","15:20",0.0,37.5,46.0,1006.9,287.3,1.0,2.1,225.0,0.41,24.0,30.4,"15:10:16",1
"18/07/15","15:30",0.0,37.7,47.6,1006.7,254.4,0.7,2.2,316.0,0.39,24.7,30.4,"15:20:48",1
"18/07/15","15:40",0.0,37.3,45.5,1006.2,210.9,1.1,3.2,356.7,0.37,23.6,30.5,"15:33:28",1
"18/07/15","15:50",0.0,37.0,45.5,1006.4,207.7,1.3,3.1,209.4,0.35,23.3,30.5,"15:41:04",1
"18/07/15","16:00",0.0,37.6,46.6,1006.0,212.5,1.6,4.5,225.6,0.32,24.3,30.5,"15:59:44",1
"18/07/15","16:10",0.0,37.6,46.5,1006.2,214.7,1.6,3.6,207.5,0.30,24.2,30.4,"16:00:02",1
"18/07/15","16:20",0.0,37.3,48.9,1006.0,203.7,1.6,3.5,225.8,0.28,24.8,30.3,"16:10:32",1
"18/07/15","16:30",0.0,37.3,48.5,1006.2,206.6,1.5,2.7,215.7,0.26,24.7,30.5,"16:27:04",1
"18/07/15","16:40",0.0,37.2,48.7,1005.7,210.7,1.7,3.3,225.1,0.24,24.6,30.4,"16:30:16",1
"18/07/15","16:50",0.0,36.9,48.5,1005.7,210.3,1.7,3.6,232.7,0.21,24.3,30.5,"16:42:08",1
"18/07/15","17:00",0.0,37.2,48.8,1005.5,216.1,1.2,2.9,229.4,0.19,24.7,30.5,"16:51:12",1
"18/07/15","17:10",0.0,36.8,50.5,1005.2,211.7,1.8,4.1,209.8,0.17,24.9,30.6,"17:04:48",1
"18/07/15","17:20",0.0,36.6,51.9,1005.5,209.2,1.6,4.7,200.4,0.09,25.1,30.6,"17:10:56",1
"18/07/15","17:30",0.0,36.3,52.8,1005.5,225.3,1.1,2.7,218.1,0.05,25.2,30.6,"17:23:52",1
"18/07/15","17:40",0.0,36.0,52.8,1005.2,231.8,0.8,2.6,222.8,0.06,24.9,30.4,"17:39:12",1
"18/07/15","17:50",0.0,35.9,53.5,1005.0,221.4,1.0,3.1,214.2,0.04,25.0,30.3,"17:44:32",1
"18/07/15","18:00",0.0,35.4,54.9,1005.2,233.2,0.8,2.6,190.9,0.03,25.0,30.1,"17:55:20",1
"18/07/15","18:10",0.0,35.4,54.5,1005.2,223.8,0.7,1.9,223.7,0.03,24.9,30.2,"18:03:12",1
"18/07/15","18:20",0.0,35.2,54.7,1005.0,219.9,0.6,1.4,213.0,0.02,24.7,30.2,"18:13:44",1
"18/07/15","18:30",0.0,34.9,55.3,1004.8,228.9,1.0,2.5,223.8,0.01,24.6,30.0,"18:22:56",1
"18/07/15","18:40",0.0,34.6,55.7,1005.2,249.8,0.8,2.8,225.9,0.01,24.5,30.2,"18:33:36",1
"18/07/15","18:50",0.0,34.0,61.0,1004.8,1.1,1.0,2.2,342.2,0.00,25.5,29.8,"18:42:08",1
"18/07/15","19:00",0.0,33.3,63.4,1004.5,1.2,1.0,2.5,345.5,0.00,25.4,29.8,"18:54:48",1
"18/07/15","19:10",0.0,33.0,64.4,1004.5,350.7,1.0,2.0,346.4,0.00,25.4,29.7,"19:03:04",1
"18/07/15","19:20",0.0,32.8,65.6,1004.3,357.0,0.8,1.9,343.6,0.00,25.5,29.6,"19:12:00",1
"18/07/15","19:30",0.0,32.6,66.9,1004.3,20.2,0.7,1.6,11.6,0.00,25.7,29.5,"19:29:52",1
"18/07/15","19:40",0.0,32.4,68.0,1004.1,35.2,0.3,1.2,49.0,0.00,25.8,29.3,"19:30:08",1
"18/07/15","19:50",0.0,31.9,69.3,1004.3,101.8,0.3,1.0,126.1,0.00,25.6,29.4,"19:41:36",1
"18/07/15","20:00",0.0,31.7,69.7,1003.8,332.1,0.7,1.7,357.0,0.00,25.5,29.1,"19:53:20",1
"18/07/15","20:10",0.0,31.8,69.2,1004.1,260.3,0.5,2.1,219.5,0.00,25.5,28.9,"20:03:20",1
"18/07/15","20:20",0.0,31.7,69.8,1004.3,20.6,0.6,1.8,337.8,0.00,25.5,29.0,"20:14:08",1
"18/07/15","20:30",0.0,31.2,71.3,1004.3,19.1,0.5,1.0,37.1,0.00,25.4,28.9,"20:23:36",1
"18/07/15","20:40",0.0,30.6,73.4,1004.3,354.1,0.5,0.9,354.1,0.00,25.3,28.9,"20:35:52",1
"18/07/15","20:50",0.0,30.2,75.7,1004.3,359.9,0.5,0.9,351.6,0.00,25.5,28.7,"20:44:00",1
"18/07/15","21:00",0.0,29.7,77.8,1004.3,345.3,0.7,1.2,351.7,0.00,25.4,28.6,"20:56:24",1
"18/07/15","21:10",0.0,29.3,78.7,1004.3,328.0,0.5,1.0,344.3,0.00,25.3,28.5,"21:00:56",1
"18/07/15","21:20",0.0,29.1,78.1,1004.1,343.0,0.5,1.2,341.7,0.00,24.9,28.5,"21:17:20",1
"18/07/15","21:30",0.0,29.0,77.4,1004.5,348.9,0.8,1.8,342.9,0.00,24.7,28.4,"21:24:32",1
"18/07/15","21:40",0.0,29.0,76.3,1005.0,351.1,0.8,1.8,335.5,0.00,24.4,28.4,"21:37:20",1
"18/07/15","21:50",0.0,28.8,77.1,1005.0,349.1,0.6,1.2,349.8,0.00,24.4,28.3,"21:41:20",1
"18/07/15","22:00",0.0,28.6,77.3,1005.0,329.4,0.5,0.8,329.9,0.00,24.3,28.2,"21:50:08",1
"18/07/15","22:10",0.0,28.4,79.0,1005.0,301.3,0.6,1.4,333.2,0.00,24.4,28.1,"22:06:48",1
"18/07/15","22:20",0.0,28.4,79.2,1005.0,293.0,0.5,1.1,285.7,0.00,24.5,27.9,"22:19:52",1
"18/07/15","22:30",0.0,28.2,79.5,1005.2,316.0,0.6,1.4,321.4,0.00,24.4,27.8,"22:29:36",1
"18/07/15","22:40",0.0,28.0,80.5,1005.2,306.8,0.6,1.1,331.1,0.00,24.4,28.0,"22:30:08",1
"18/07/15","22:50",0.0,27.9,81.1,1005.7,288.1,0.5,0.9,302.7,0.00,24.4,27.8,"22:48:56",1
"18/07/15","23:00",0.0,28.0,81.4,1005.7,272.5,0.6,0.9,267.3,0.00,24.6,27.7,"22:54:40",1
"18/07/15","23:10",0.0,27.9,81.7,1005.7,285.5,0.7,1.3,307.3,0.00,24.5,27.7,"23:07:28",1
"18/07/15","23:20",0.0,27.8,82.0,1005.7,293.1,0.7,1.4,323.2,0.00,24.5,27.6,"23:12:32",1
"18/07/15","23:30",0.0,27.5,82.7,1005.7,299.5,0.7,1.4,321.9,0.00,24.3,27.7,"23:27:28",1
"18/07/15","23:40",0.0,27.4,83.1,1006.0,274.2,0.7,1.2,306.8,0.00,24.3,27.5,"23:30:02",1
"18/07/15","23:50",0.0,27.4,83.0,1005.7,296.0,0.8,1.3,308.7,0.00,24.3,27.3,"23:45:36",1
"18/07/15","24:00",0.0,27.5,83.2,1005.7,321.6,1.6,2.8,335.9,0.00,24.4,27.3,"23:54:24",1
